sat.trackr.live / text

‹ back to catalog

STARLINK-31648

NORAD 59266 · 2024-050N

PAYLOAD ACTIVE UNKNOWN

§ Identity

Operator
Country
US
Launch date
2024-03-19
Launch site
AFWTR
Launch vehicle
Mass (kg)
RCS (m²)

Purposes: comms

External: N2YO · Heavens-Above · Gunter

§ Orbital elements

Epoch: 2026-09-20T22:42:37.634688Z

Period
93.85 min
Inclination
53.1608°
Eccentricity
0.0001038
Mean motion
15.34400781 rev/d
Perigee alt
462.0 km
Apogee alt
463.4 km
Semi-major
6,840.8 km
B*
5.0715e-5
RAAN
353.3102°
Arg perigee
86.1261°
Mean anomaly
273.9861°
Rev number
14,045

§ Raw data

STARLINK-316481 59266U 24050N   26263.94626892  .00001338  00000+0  50715-4 0  99902 59266  53.1608 353.3102 0001038  86.1261 273.9861 15.34400781140459

JSON: /api/v1/satellites/59266 · /tle

For live sub-satellite position, see the globe view (requires WebGL).

§ Visibility from observer

Set your observer location to see the next 7 days of passes ≥ 10°. The values pass through the URL so the page stays shareable.

No JS? Fill the form by hand. The geolocation button needs JavaScript.